User: anonymous   Login
Location: Erdweis
(48.5167°N, 15.3500°E)
Time: 03:38:14
(UTC+00:00)
Language:

Ariane Rocket - Orbit

View from above orbital plane
View from above orbital plane
View from above satellite
View from above satellite

Ground track
Ground track

The orbit data is extracted from the following two-line orbital elements,

1 23561U 95021B   20332.92274917 +.00000078 +00000-0 +40882-4 0  9996
2 23561 098.7049 014.4605 0007872 125.3965 048.0153 14.37994739342063
Epoch (UTC): 27 November 2020 22:08:45
Eccentricity: 0.0007872
inclination: 98.7049°
perigee height: 759 km
apogee height: 771 km
right ascension of ascending node: 14.4605°
argument of perigee: 125.3965°
revolutions per day: 14.37994739
mean anomaly at epoch: 48.0153°
orbit number at epoch: 34206

The dashed part of the orbit path shows where the satellite is in the earth's shadow,  

DLR